Location: Ravensburg
(47.7866°N, 9.6124°E)
Time: 03:17:56
(UTC+02:00)

Gurwin Techsat 1B - Pass Details

Date: 19 March 2026
Orbit: 809 x 812 km, 99.0° (Epoch: 14 April)

Event Time Altitude Azimuth Distance (km) Brightness Sun altitude
Rises 05:09:42 0° 19° (NNE) 3,341 12.3 -13.7°
Reaches altitude 10° 05:12:08 10° 25° (NNE) 2,405 11.6 -13.3°
Maximum altitude 05:17:17 50° 100° (E) 1,030 9.6 -12.4°
Drops below altitude 10° 05:22:24 10° 175° (S) 2,387 11.0 -11.6°
Sets 05:24:48 0° 181° (S) 3,314 11.7 -11.2°
